03:04
Airports
History
Links
Donate
Help keep this website running!
PayPal
Bitcoin
This page is community maintained. The information is intended for PC simulator navigation or reference.
Always use approved charts for navigation.
1II4
Amy
Amy (1II4)
Corydon, Indiana, United States (47112)
4
Lat/Lng:38° 7' 30.24" N / 86° 9' 43.89" W
38.125068 / -86.162193
Elevation:665'ft / 203mMSL
ID / ICAO:1II4
Runways:1
Longest:09-27
Grass 322m / 1,056ft
Nearby Weather02:56 GMT 2018-01-20
Nearby weather at KFTK, Godman Aaf located 18.3 nautical miles from 1II4
Altimeter: 30.09
Visibility: 10.0 statute miles
Wind: 8 knots (from 190°)
Temp: 1°c / 34°f
Humidity: 59.4%

METAR: KFTK 200256Z 19008KT 10SM SCT030 BKN250 01/M06 A3009 RMK AO2A SLP200 T00101060 53002

(Powered by phpweather)
Nearby VORs <50NM
Nearby NDBs
Runway 09 / 27
Dimensions:321.9 x 18.3m 1056' x 60'ft
Surface:Grass
Runway 09 [A]Runway 27 [B]
Heading:087°TH 267°TH
Lat:
Lng:
38° 7' 30.07"N
86° 9' 50.48"W
38° 7' 30.43"N
86° 9' 37.31"W
User Notes and Comments
38° 7' 30.24" N / 86° 9' 43.89" W
Distance To
Airport ID:
Nearby Airports
4 Stewart 7.8 NM
IN68 E 84°
(R) Greenridge Rla 11.0 NM
IN14 NE 44°
(R) Cedar Farm 11.9 NM
28II SSE 150°
(R) Lanesville Skyways 12.2 NM
IN13 NE 56°
(R) Byrne Field 15.7 NM
0IN5 NNE 26°
4 Gettlefinger Field 18.1 NM
4II6 NNE 13°
(R) Godman Aaf 18.3 NM
KFTK ( WX ) SE 145°
VFR Chart
Flight Planning at SkyVector.com